TimeCST,TemperatureF,Dew PointF,Humidity,Sea Level PressureIn,VisibilityMPH,Wind Direction,Wind SpeedMPH,Gust SpeedMPH,PrecipitationIn,Events,Conditions,WindDirDegrees,DateUTC
12:13 AM,26.6,24.8,93,29.69,7.0,North,15.0,-,N/A,Snow,Light Snow,350,2013-02-14 06:13:00
12:32 AM,26.6,24.8,93,29.70,7.0,North,18.4,-,N/A,Snow,Light Snow,350,2013-02-14 06:32:00
12:53 AM,26.6,24.8,93,29.71,7.0,North,17.3,-,N/A,Snow,Light Snow,350,2013-02-14 06:53:00
1:13 AM,26.6,24.8,93,29.72,7.0,North,16.1,-,N/A,Snow,Light Snow,350,2013-02-14 07:13:00
1:32 AM,24.8,23.0,93,29.73,7.0,North,16.1,-,N/A,,Overcast,350,2013-02-14 07:32:00
1:53 AM,24.8,23.0,93,29.75,10.0,North,16.1,-,N/A,,Overcast,350,2013-02-14 07:53:00
2:12 AM,24.8,23.0,93,29.75,10.0,North,15.0,-,N/A,,Mostly Cloudy,350,2013-02-14 08:12:00
2:32 AM,23.0,21.2,93,29.76,10.0,North,15.0,-,N/A,,Clear,350,2013-02-14 08:32:00
2:53 AM,21.2,19.4,93,29.77,10.0,North,17.3,-,N/A,,Clear,350,2013-02-14 08:53:00
3:12 AM,19.4,17.6,93,29.78,10.0,North,16.1,-,N/A,,Clear,350,2013-02-14 09:12:00
3:33 AM,19.4,17.6,93,29.78,7.0,North,12.7,-,N/A,,Clear,360,2013-02-14 09:33:00
3:53 AM,17.6,17.6,100,29.78,7.0,North,11.5,-,N/A,,Clear,360,2013-02-14 09:53:00
4:12 AM,17.6,15.8,93,29.79,7.0,North,10.4,-,N/A,,Mostly Cloudy,360,2013-02-14 10:12:00
4:33 AM,17.6,15.8,93,29.80,7.0,North,10.4,-,N/A,,Overcast,360,2013-02-14 10:33:00
4:53 AM,17.6,15.8,93,29.80,7.0,North,9.2,-,N/A,,Overcast,10,2013-02-14 10:53:00
5:12 AM,17.6,15.8,93,29.81,7.0,North,8.1,-,N/A,,Overcast,10,2013-02-14 11:12:00
5:33 AM,17.6,15.8,93,29.81,7.0,North,9.2,-,N/A,,Overcast,360,2013-02-14 11:33:00
5:53 AM,17.6,15.8,93,29.82,7.0,North,8.1,-,N/A,,Overcast,360,2013-02-14 11:53:00
6:12 AM,17.6,15.8,93,29.81,7.0,North,4.6,-,N/A,,Overcast,10,2013-02-14 12:12:00
6:33 AM,17.6,17.6,100,29.81,7.0,North,4.6,-,N/A,Snow,Light Snow,360,2013-02-14 12:33:00
6:52 AM,19.4,17.6,93,29.83,7.0,North,5.8,-,N/A,,Overcast,350,2013-02-14 12:52:00
7:13 AM,17.6,17.6,100,29.83,7.0,North,6.9,-,N/A,,Overcast,350,2013-02-14 13:13:00
7:33 AM,19.4,17.6,93,29.84,7.0,North,6.9,-,N/A,,Overcast,360,2013-02-14 13:33:00
7:52 AM,19.4,17.6,93,29.85,10.0,North,8.1,-,N/A,,Overcast,10,2013-02-14 13:52:00
8:13 AM,19.4,15.8,86,29.86,10.0,North,6.9,-,N/A,,Overcast,10,2013-02-14 14:13:00
8:32 AM,19.4,15.8,86,29.87,10.0,North,8.1,-,N/A,,Overcast,10,2013-02-14 14:32:00
8:52 AM,19.4,15.8,86,29.88,10.0,North,8.1,-,N/A,,Overcast,360,2013-02-14 14:52:00
9:13 AM,19.4,15.8,86,29.89,10.0,North,9.2,-,N/A,,Overcast,360,2013-02-14 15:13:00
9:32 AM,21.2,17.6,86,29.90,10.0,North,12.7,-,N/A,,Overcast,360,2013-02-14 15:32:00
9:52 AM,21.2,15.8,80,29.91,10.0,North,11.5,-,N/A,,Overcast,360,2013-02-14 15:52:00
10:13 AM,19.4,15.8,86,29.92,10.0,NNE,12.7,-,N/A,,Overcast,20,2013-02-14 16:13:00
10:32 AM,19.4,15.8,86,29.93,10.0,North,11.5,-,N/A,,Mostly Cloudy,10,2013-02-14 16:32:00
10:52 AM,21.2,15.8,80,29.94,10.0,North,11.5,-,N/A,,Scattered Clouds,10,2013-02-14 16:52:00
11:13 AM,21.2,15.8,80,29.95,10.0,North,12.7,-,N/A,,Scattered Clouds,360,2013-02-14 17:13:00
11:32 AM,19.4,15.8,86,29.96,10.0,North,15.0,-,N/A,,Clear,10,2013-02-14 17:32:00
11:53 AM,19.4,15.8,86,29.97,10.0,North,13.8,-,N/A,,Scattered Clouds,360,2013-02-14 17:53:00
12:13 PM,19.4,14.0,80,29.98,10.0,North,16.1,19.6,N/A,,Clear,360,2013-02-14 18:13:00
12:32 PM,19.4,14.0,80,29.99,10.0,North,15.0,-,N/A,,Clear,360,2013-02-14 18:32:00
12:53 PM,17.6,12.2,79,30.00,10.0,North,17.3,-,N/A,,Clear,350,2013-02-14 18:53:00
1:12 PM,17.6,12.2,79,30.01,10.0,North,15.0,-,N/A,,Clear,360,2013-02-14 19:12:00
1:32 PM,17.6,12.2,79,30.02,10.0,North,18.4,-,N/A,,Clear,350,2013-02-14 19:32:00
1:53 PM,15.8,10.4,79,30.03,10.0,North,21.9,-,N/A,,Clear,350,2013-02-14 19:53:00
2:12 PM,15.8,10.4,79,30.04,10.0,North,23.0,-,N/A,,Clear,360,2013-02-14 20:12:00
2:32 PM,15.8,10.4,79,30.05,10.0,North,18.4,-,N/A,,Clear,350,2013-02-14 20:32:00
2:53 PM,15.8,8.6,73,30.06,10.0,North,19.6,-,N/A,,Clear,360,2013-02-14 20:53:00
3:12 PM,14.0,8.6,79,30.08,10.0,North,20.7,-,N/A,,Clear,360,2013-02-14 21:12:00
3:32 PM,12.2,8.6,85,30.09,10.0,North,21.9,-,N/A,,Clear,360,2013-02-14 21:32:00
3:53 PM,12.2,8.6,85,30.11,10.0,North,18.4,-,N/A,,Clear,360,2013-02-14 21:53:00
4:12 PM,12.2,8.6,85,30.12,10.0,North,18.4,-,N/A,,Clear,360,2013-02-14 22:12:00
4:33 PM,12.2,6.8,79,30.13,10.0,North,19.6,26.5,N/A,,Clear,360,2013-02-14 22:33:00
4:53 PM,10.4,6.8,85,30.14,7.0,North,19.6,28.8,N/A,,Clear,10,2013-02-14 22:53:00
5:12 PM,10.4,6.8,85,30.15,7.0,North,19.6,-,N/A,,Clear,360,2013-02-14 23:12:00
5:33 PM,10.4,6.8,85,30.16,10.0,North,17.3,-,N/A,,Clear,360,2013-02-14 23:33:00
5:53 PM,8.6,5.0,85,30.17,10.0,North,17.3,-,N/A,,Clear,10,2013-02-14 23:53:00
6:12 PM,8.6,3.2,79,30.18,10.0,North,18.4,23.0,N/A,,Clear,360,2013-02-15 00:12:00
6:33 PM,8.6,3.2,79,30.19,10.0,North,17.3,-,N/A,,Clear,360,2013-02-15 00:33:00
6:53 PM,8.6,3.2,79,30.20,10.0,North,15.0,-,N/A,,Clear,360,2013-02-15 00:53:00
7:12 PM,8.6,3.2,79,30.21,10.0,North,13.8,-,N/A,,Clear,360,2013-02-15 01:12:00
7:33 PM,6.8,3.2,85,30.20,10.0,North,15.0,-,N/A,,Clear,350,2013-02-15 01:33:00
7:52 PM,6.8,3.2,85,30.21,10.0,North,13.8,-,N/A,,Clear,350,2013-02-15 01:52:00
8:12 PM,6.8,1.4,79,30.22,10.0,North,13.8,-,N/A,,Clear,350,2013-02-15 02:12:00
8:33 PM,5.0,1.4,85,30.22,10.0,North,13.8,-,N/A,,Clear,360,2013-02-15 02:33:00
8:52 PM,5.0,1.4,85,30.22,10.0,North,13.8,-,N/A,,Clear,360,2013-02-15 02:52:00
9:12 PM,3.2,-0.4,85,30.22,10.0,North,10.4,-,N/A,,Clear,360,2013-02-15 03:12:00
9:33 PM,1.4,-0.4,92,30.23,10.0,North,9.2,-,N/A,,Clear,360,2013-02-15 03:33:00
9:52 PM,3.2,1.4,92,30.23,10.0,NNW,9.2,-,N/A,,Clear,340,2013-02-15 03:52:00
10:12 PM,1.4,-0.4,92,30.23,10.0,NNW,6.9,-,N/A,,Clear,330,2013-02-15 04:12:00
10:33 PM,1.4,-2.2,85,30.23,10.0,North,6.9,-,N/A,,Clear,350,2013-02-15 04:33:00
10:52 PM,-0.4,-4.0,85,30.24,10.0,North,3.5,-,N/A,,Scattered Clouds,350,2013-02-15 04:52:00
11:12 PM,-0.4,-4.0,85,30.24,10.0,North,6.9,-,N/A,,Scattered Clouds,350,2013-02-15 05:12:00
11:33 PM,-0.4,-4.0,85,30.23,10.0,NW,4.6,-,N/A,,Scattered Clouds,320,2013-02-15 05:33:00
11:52 PM,-2.2,-5.8,85,30.24,10.0,NW,4.6,-,N/A,,Mostly Cloudy,320,2013-02-15 05:52:00